Regional Weather Roundup
Issued by NWS Northern Indiana

Home | Current Version | Previous Version | Graphics & Text | Print | Product List | Glossary On
Versions: 1 2 3 4 5 6 7 8 9 10 11 12 13 14 15 16 17 18 19 20 21 22 23 24 25 26 27 28 29 30 31 32 33 34 35 36 37 38 39 40 41 42 43 44 45 46 47 48 49 50
000
ASUS43 KIWX 222210
RWRIWX

KIWX WEATHER ROUNDUP
NATIONAL WEATHER SERVICE NORTHERN INDIANA
600 PM EDT FRI SEP 22 2017

NOTE: "FAIR" INDICATES FEW OR NO CLOUDS BELOW 12,000 FEET WITH NO
SIGNIFICANT WEATHER AND/OR OBSTRUCTIONS TO VISIBILITY.

* THESE STATIONS ARE NOT UNDER NWS QUALITY CONTROL. THEY ALSO MAY NOT
  REPORT WEATHER SUCH AS PRECIPITATION OR FOG.

INZ001>027-222300-
NORTHERN INDIANA

CITY           SKY/WX    TMP DP  RH WIND       PRES   REMARKS
GARY*          MOSUNNY   93  59  31 SE6       30.03F
VALPARAISO     SUNNY     93  65  39 CALM      30.04F HX  95
MICHIGAN CITY* SUNNY     86  70  58 N3        30.05S
LAPORTE*       SUNNY     91  67  44 E6        30.05S
KNOX*          SUNNY     90  64  43 E3        30.04S
SOUTH BEND     SUNNY     90  67  46 SW5       30.06S
ELKHART*       SUNNY     91  66  43 CALM      30.05F
GOSHEN         SUNNY     90  67  46 E5        30.06S
MONTICELLO*    SUNNY     91  65  42 E3        30.02F
LOGANSPORT*    SUNNY     90  64  43 E3        30.05S
WARSAW*        SUNNY     88  68  51 E3        30.06S
AUBURN*        SUNNY     88  64  45 NE3       30.07S
FORT WAYNE     MOSUNNY   87  69  54 NE8       30.06S
HUNTINGTON*    MOSUNNY   88  67  48 NE3       30.05S
PERU/GRISSOM   MOSUNNY   90  69  50 NE6       30.04S

$$
INZ028>050-222300-
CENTRAL INDIANA

CITY           SKY/WX    TMP DP  RH WIND       PRES   REMARKS
LAFAYETTE      CLOUDY    90  67  46 VRB3      30.02S
KOKOMO*        LGT RAIN  90  70  51 N13       30.06S HX  95
MUNCIE*        SUNNY     85  68  56 W6        30.05S
INDIANAPOLIS   PTSUNNY   89  65  44 E10       30.04R THUNDER

$$
MIZ043>046-050>051-056>058-064>065-071>073-077>080-222300-
SOUTHWEST LOWER MICHIGAN

CITY           SKY/WX    TMP DP  RH WIND       PRES   REMARKS
BATTLE CREEK   SUNNY     91  65  41 W5        30.08R
BENTON HARBOR  SUNNY     88  64  44 NW5       30.05S
COLDWATER*     MOSUNNY   91  59  34 CALM      30.08R
HILLSDALE*     CLOUDY    81  63  54 NW9       30.10R
HOLLAND        SUNNY     89  64  43 W6        30.07R
GRAND RAPIDS   MOSUNNY   94  63  35 W5        30.06R HX  95
KALAMAZOO      SUNNY     92  62  36 W3        30.06S
STURGIS*       SUNNY     90  65  44 CALM      30.06S
THREE RIVERS*  FAIR      91  64  40 CALM      30.07R

$$
OHZ001>008-015>018-024>025-222300-
NORTHWEST OHIO

CITY           SKY/WX    TMP DP  RH WIND       PRES   REMARKS
WAUSEON*       FAIR      86  68  54 E7        30.07S
DEFIANCE       SUNNY     90  68  48 N5        30.05F
FINDLAY        SUNNY     89  65  44 NE9       30.06R
TOLEDO EXPRESS SUNNY     88  71  57 NE8       30.06F
TOLEDO METCALF SUNNY     85  67  54 NE8       30.08S
LIMA           MOSUNNY   88  66  48 NE8       30.07R

$$
AND FOR LAKE MICHIGAN COASTAL AND OPEN LAKE BUOY OBSERVATIONS

STATION/POSITION TEMP    WIND        PRES    VSBY  WAVE
                 AIR SEA DIR/SP/G                  HT/PER
                 (F)     (DEG/KT/KT) (MB)    (MI)  (FT/S)
CALUMET HARBOR    82      90/  6/ 10 1016.2R
MICHIGAN CITY     82      50/ 11/ 11   N/A
BURNS HARBOR      80      80/ 10/ 12 1017.3F
SAINT JOSEPH      83      20/  4/  5 1018.6
SOUTH LAKE BUOY   73 71  110/  8/  8 1017.1F         0
4 MI NW BRIDGMAN  79 74   70/  4/  6 1017.2          0
MICHIGAN CITY     77 76   60/  4/  4   N/A           0

$$
&&



USA.gov is the U.S. government's official web portal to all federal, state and local government web resources and services.